This is the latest recevied weather packets stored in our database for station/object VA3ZFM-10. If no packets are shown the sender has not sent any weather packets the latest 10 day(s).
| Time | Temp. | Humidity | Pressure | Rain* | Wind** | Luminosity | Snow |
|---|---|---|---|---|---|---|---|
| 1777788129 | 1.67° C | 69% | 1011.7 hPa | 0 mm | - | - | - |
| 1777787824 | 1.67° C | 69% | 1011.6 hPa | 0 mm | - | - | - |
| 1777787521 | 1.67° C | 70% | 1011.6 hPa | 0 mm | - | - | - |
| 1777787215 | 1.67° C | 69% | 1011.6 hPa | 0 mm | - | - | - |
| 1777786913 | 1.67° C | 68% | 1011.6 hPa | 0 mm | - | - | - |
| 1777786611 | 2.22° C | 68% | 1011.8 hPa | 0 mm | - | - | - |
| 1777786309 | 2.22° C | 67% | 1011.7 hPa | 0 mm | - | - | - |
| 1777786005 | 2.22° C | 69% | 1011.8 hPa | 0 mm | - | - | - |
| 1777785701 | 2.22° C | 67% | 1011.8 hPa | 0 mm | - | - | - |
| 1777785397 | 2.22° C | 67% | 1011.9 hPa | 0 mm | - | - | - |
| 1777785095 | 2.22° C | 70% | 1011.9 hPa | 0 mm | - | - | - |
| 1777784791 | 2.22° C | 69% | 1011.9 hPa | 0 mm | - | - | - |
| 1777784488 | 2.22° C | 70% | 1011.9 hPa | 0 mm | - | - | - |
| 1777784186 | 2.22° C | 69% | 1012.1 hPa | 0 mm | - | - | - |
| 1777783883 | 2.22° C | 69% | 1011.9 hPa | 0 mm | - | - | - |
| 1777783579 | 2.22° C | 70% | 1012 hPa | 0 mm | - | - | - |
| 1777783277 | 2.22° C | 68% | 1012 hPa | 0 mm | - | - | - |
| 1777782973 | 1.67° C | 69% | 1012 hPa | 0 mm | - | - | - |
| 1777782670 | 1.67° C | 76% | 1012.2 hPa | 0 mm | - | - | - |
| 1777782367 | 1.67° C | 75% | 1012.2 hPa | 0 mm | - | - | - |
| 1777782063 | 1.67° C | 76% | 1011.9 hPa | 0 mm | - | - | - |
| 1777781759 | 1.67° C | 75% | 1012.1 hPa | 0 mm | - | - | - |
| 1777781457 | 1.67° C | 75% | 1012.1 hPa | 0 mm | - | - | - |
| 1777781154 | 2.22° C | 74% | 1012 hPa | 0 mm | - | - | - |
| 1777780851 | 2.22° C | 72% | 1012.1 hPa | 0 mm | - | - | - |
* Rain latest hour (hover to see other rain measurements)
** Current wind speed in m/s (hover to see current wind gust speed)